Regional Weather Roundup
Issued by NWS

Home | Current Version | Previous Version | Graphics & Text | Print | Product List | Glossary On
Versions: 1 2 3 4 5 6 7 8 9 10 11 12 13 14 15 16 17 18 19 20 21 22 23 24 25 26 27 28 29 30 31 32 33 34 35 36 37 38 39 40 41 42 43 44 45 46 47 48 49
000
ASUS45 KSLC 290610
RWRUT

UTAH REGIONAL WEATHER ROUNDUP
NATIONAL WEATHER SERVICE SALT LAKE CITY UT
1200 AM MDT SUN MAR 29 2015

UTZ001>011-023>025-290700-

NORTHERN UTAH

CITY           SKY/WX    TMP DP  RH WIND       PRES   REMARKS
BRIGHAM CITY   PTCLDY    51  15  23 CALM      30.28R
HILL AFB       NOT AVBL
LOGAN          CLEAR     43  23  45 NW13      30.29R
OGDEN          PTCLDY    47  19  33 NW6       30.24R
PROVO AIRPORT  CLEAR     52  27  37 N8        30.24R
SALT LAKE CITY CLEAR     49  29  46 N9        30.25R
VERNAL         PTCLDY    48  11  22 CALM      30.14R
WENDOVER       CLEAR     48  16  27 NE6       30.27R
HEBER CITY     CLEAR     43  23  45 CALM      30.26R
WEST JORDAN    CLEAR     52  27  37 NW15      30.27R

$$

UTZ012>022-026-027-290700-

SOUTHERN/CENTRAL UTAH

CITY           SKY/WX    TMP DP  RH WIND       PRES   REMARKS
BLANDING       PTCLDY    49  23  35 N12       30.23S
BRYCE CANYON   CLEAR     35  24  64 CALM      30.31R
CEDAR CITY     CLEAR     49  24  37 E7        30.22R
DELTA          MOCLDY    56  16  21 N12       30.23R
HANKSVILLE     CLEAR     48  21  34 NE5       30.12R
MILFORD        PTCLDY    51  22  31 N12       30.22R
MOAB/CYNLANDS  CLEAR     56  20  24 N3        30.07R
PRICE          CLEAR     52  18  26 NW9       30.19R
ST GEORGE      CLEAR     64  25  22 E9        30.09R
KANAB          CLEAR     45  27  49 N6        30.23R

$$

REGIONAL REPORTS     COLORADO/ARIZONA

CITY           SKY/WX    TMP DP  RH WIND       PRES   REMARKS
CRAIG, CO        N/A     47  20  34 SW10      30.18R
GRAND JUNCTION PTCLDY    48  23  37 N5        30.10R
RIFLE          PTCLDY    61  24  24 SW7       30.13R
MONTROSE       PTCLDY    53  23  31 SE10      30.16R
CORTEZ         CLEAR     40  20  44 NE9       30.20R WCI  34
PAGE, AZ       CLEAR     67  20  16 W5        30.12R
GRAND CANYON   CLEAR     35  19  52 CALM      30.30R
KINGMAN        CLEAR     62  22  21 CALM      30.13R
FLAGSTAFF      CLEAR     41  21  44 W3        30.33R

$$

REGIONAL REPORTS    NEVADA/IDAHO/WYOMING

CITY           SKY/WX    TMP DP  RH WIND       PRES   REMARKS
LAS VEGAS, NV  CLEAR     73  18  12 S10       29.98R
ELY            CLEAR     48  13  24 N10       30.30R
ELKO           CLEAR     41  11  29 CALM      30.31R
POCATELLO, ID  CLEAR     44  20  38 SW14      30.29R
BURLEY         CLEAR     43  22  43 S10       30.29R
EVANSTON, WY   CLEAR     42  15  33 W6        30.31R
ROCK SPRINGS   CLEAR     45  18  34 W17G23    30.25R
KEMMERER       PTCLDY    39  16  38 W23       30.26S WCI  29

$$


USA.gov is the U.S. government's official web portal to all federal, state and local government web resources and services.